[[{"header":{"parameterUnit":"m.s-1","parameterCategory":1,"la1":30.2991,"la2":30.254,"lo1":-89.0895,"lo2":-89.0444,"dy":0.0017,"dx":0.0017,"nx":28,"ny":28,"refTime":"2025-06-21T09:00:00:Z","depth":0,"parameterNumber":2,"parameterNumberName":"U-component_of_WINDS"},"data":[0,0,0,0,0,0,0,0,0,0,0,0,0,0,0,0,0,0,0,0,0,0,0,0,0,0,0,0,0,0,0,0,0,0,0,0,0,0,0,0,0,0,0,0,0,0,0,0,0,0,0,0,0,0,0,0,0,0,-0.9467,-0.9467,0,-0.9471,-0.9471,-0.9471,-0.9443,-0.9443,-0.9442,-0.9441,-0.9446,-0.9447,-0.9447,0,0,0,0,0,0,0,0,0,0,0,0,0,-0.944,-0.9441,-0.9467,-0.9467,-0.9467,-0.9471,-0.9471,-0.9471,-0.9443,-0.9443,-0.9442,-0.9441,-0.9445,-0.9446,-0.9447,0,0,0,0,0,0,0,0,0,0,0,0,0,-0.9448,-0.9441,-0.9467,-0.9454,-0.9453,-0.9471,-0.9471,-0.9471,-0.9444,-0.9443,-0.9441,-0.944,-0.9445,-0.9446,-0.9448,-0.9478,0,0,-0.9451,-0.9452,0,0,0,0,0,0,0,0,-0.9448,-0.9449,-0.9456,-0.9455,-0.9454,-0.9455,-0.9463,-0.9473,-0.9444,-0.9447,-0.9441,-0.944,-0.945,-0.9451,-0.9454,-0.9478,-0.9479,-0.9452,-0.9452,-0.9453,-0.9453,0,0,0,0,0,0,0,-0.9447,-0.9449,-0.9469,-0.9456,-0.9455,-0.9449,-0.9449,-0.9464,-0.9455,-0.9447,-0.9445,-0.9446,-0.9449,-0.9453,-0.9454,-0.9479,-0.9452,-0.9453,-0.9453,-0.9454,-0.953,-0.9531,0,0,0,0,0,0,-0.9448,-0.9449,-0.9469,-0.9469,-0.9448,-0.945,-0.945,-0.9456,-0.9455,-0.9453,-0.9447,-0.9444,-0.9451,-0.9452,-0.9454,-0.9491,-0.9453,-0.9454,-0.9455,-0.9529,-0.953,-0.9532,0,0,0,0,0,0,-0.9448,-0.945,-0.9468,-0.9458,-0.946,-0.9452,-0.9459,-0.9457,-0.946,-0.9455,-0.9453,-0.9452,-0.945,-0.9452,-0.9473,-0.949,-0.9455,-0.9456,-0.9527,-0.9529,-0.9531,-0.9564,0,0,0,0,0,0,-0.9447,-0.945,-0.9461,-0.9459,-0.9461,-0.9487,-0.946,-0.9458,-0.9462,-0.9459,-0.9459,-0.9458,-0.945,-0.9471,-0.9474,-0.9491,-0.9457,-0.9526,-0.9528,-0.953,-0.9561,-0.9566,-0.9571,0,0,0,0,0,-0.9446,-0.9471,-0.9462,-0.9465,-0.9474,-0.9488,-0.9489,-0.9478,-0.9464,-0.9475,-0.9472,-0.9458,-0.9488,-0.9473,-0.9476,-0.9495,-0.9524,-0.9527,-0.953,-0.9559,-0.9565,-0.9571,0,0,0,0,0,0,-0.9476,-0.947,-0.946,-0.9484,-0.9487,-0.9483,-0.9497,-0.9486,-0.9492,-0.9489,-0.9477,-0.9477,-0.95,-0.9499,-0.9483,-0.9525,-0.9504,-0.9507,-0.9524,-0.9531,-0.9536,-0.9536,-0.9458,0,0,0,0,0,-0.9485,-0.9496,-0.949,-0.9512,-0.9514,-0.9505,-0.9511,-0.9502,-0.9504,-0.9505,-0.9503,-0.9506,-0.9516,-0.9523,-0.9532,-0.9561,-0.9561,-0.9575,-0.958,-0.9584,-0.9588,-0.9604,-0.961,-0.9541,-0.9541,-0.9541,0,0,-0.9504,-0.9502,-0.951,-0.9518,-0.9519,-0.9531,-0.9506,-0.952,-0.9529,-0.9508,-0.9527,-0.9526,-0.9528,-0.9553,-0.9564,-0.9553,-0.9607,-0.9588,-0.9591,-0.9592,-0.9607,-0.9614,-0.962,-0.9543,-0.9543,-0.9542,0,0,-0.9546,-0.9545,-0.9564,-0.9565,-0.9566,-0.9561,-0.9565,-0.9564,-0.9562,-0.9581,-0.9565,-0.9576,-0.9594,-0.9597,-0.96,-0.9644,-0.9632,-0.9647,-0.9674,-0.969,-0.9695,-0.97,-0.9717,-0.9723,-0.9651,-0.9651,-0.9651,0,-0.957,-0.9587,-0.9575,-0.959,-0.9594,-0.9575,-0.9594,-0.9596,-0.9601,-0.9605,-0.9592,-0.9615,-0.9615,-0.9641,-0.9652,-0.9655,-0.966,-0.9647,-0.9695,-0.97,-0.9704,-0.972,-0.9726,-0.9653,-0.9652,-0.9652,-0.9652,0,-0.9617,-0.9629,-0.9644,-0.9649,-0.9655,-0.9672,-0.9663,-0.9671,-0.9662,-0.9658,-0.9679,-0.9678,-0.9687,-0.9693,-0.9684,-0.9718,-0.9711,-0.9698,-0.9676,-0.9713,-0.9728,-0.9734,-0.9655,-0.9655,-0.9654,-0.9654,0,0,-0.9677,-0.9675,-0.9681,-0.9683,-0.9684,-0.9694,-0.971,-0.9719,-0.9726,-0.973,-0.9744,-0.976,-0.9748,-0.9752,-0.9744,-0.9758,-0.9794,-0.9742,-0.9742,-0.9753,-0.9832,-0.9843,-0.985,-0.9785,-0.9786,-0.9787,-0.9832,0,-0.9719,-0.9746,-0.9736,-0.9765,-0.9777,-0.9759,-0.9774,-0.9776,-0.9773,-0.9783,-0.978,-0.9792,-0.9774,-0.9776,-0.9789,-0.9787,-0.9809,-0.9783,-0.98,-0.98,-0.98,-0.9857,-0.9868,-0.991,-0.9837,-0.9838,-0.9839,0,-0.977,-0.9776,-0.9806,-0.9806,-0.981,-0.9824,-0.9831,-0.9841,-0.9844,-0.984,-0.9846,-0.9835,-0.9852,-0.9831,-0.9855,-0.9837,-0.9843,-0.9843,-0.9845,-0.9846,-0.9822,-0.9861,-0.9923,-0.993,-0.9847,-0.9847,-0.9846,0,-0.9813,-0.9828,-0.9848,-0.9851,-0.985,-0.986,-0.9861,-0.9862,-0.9868,-0.9875,-0.9879,-0.9888,-0.9893,-0.9901,-0.9893,-0.9878,-0.9919,-0.9896,-0.9918,-0.9918,-0.9927,-0.9927,-0.9992,-0.993,-0.993,-0.993,-0.993,0,-0.986,-0.988,-0.9867,-0.988,-0.9902,-0.989,-0.9912,-0.991,-0.9912,-0.9925,-0.991,-0.9922,-0.9911,-0.9922,-0.9916,-0.9938,-0.994,-0.9939,-0.9937,-0.9941,-0.9941,-0.9945,-0.9942,-0.9932,-0.9931,-0.9931,-0.9931,0,-0.9911,-0.9904,-0.9925,-0.9923,-0.9923,-0.9939,-0.9937,-0.9949,-0.9945,-0.9961,-0.9964,-0.9958,-0.9971,-0.9964,-0.9978,-0.9974,-1.0002,-0.9996,-1.0001,-1.0,-1.0022,-1.002,-1.0093,-1.0102,-1.0033,-1.0034,-1.0034,0,-0.9943,-0.9957,-0.9957,-0.9964,-0.9965,-0.9977,-0.9983,-0.9972,-0.9979,-0.9984,-0.9996,-1.0007,-1.0016,-1.0038,-1.0035,-1.0046,-1.004,-1.0065,-1.0042,-1.0045,-1.0042,-1.0042,-1.0044,-1.007,-1.0071,-1.0071,-1.0072,0,-1.0,-0.9995,-1.0004,-1.0013,-1.002,-1.0026,-1.0031,-1.0038,-1.0028,-1.0037,-1.0049,-1.0056,-1.007,-1.0082,-1.0091,-1.0092,-1.0081,-1.0079,-1.0085,-1.0089,-1.0092,-1.0092,-1.0015,-1.0078,-1.0077,-1.0077,-1.0076,-1.0076,-1.0042,-1.0055,-1.0056,-1.0067,-1.007,-1.0075,-1.0086,-1.0084,-1.0094,-1.0104,-1.0097,-1.0113,-1.0116,-1.0127,-1.013,-1.0143,-1.0133,-1.0141,-1.0143,-1.0146,-1.0149,-1.0089,-1.0144,-1.0144,-1.0144,-1.0144,-1.0144,0,-1.0099,-1.01,-1.011,-1.0117,-1.0126,-1.0114,-1.0119,-1.0127,-1.0141,-1.0145,-1.0154,-1.0169,-1.0181,-1.0179,-1.019,-1.0201,-1.0196,-1.0204,-1.0204,-1.0204,-1.0157,-1.0151,-1.0208,-1.0208,-1.0208,-1.0208,-1.0208,-1.0208,-1.013,-1.0151,-1.0147,-1.0169,-1.0169,-1.0184,-1.0188,-1.0193,-1.0196,-1.0214,-1.0223,-1.0222,-1.0224,-1.0235,-1.0246,-1.0245,-1.025,-1.0261,-1.0258,-1.0214,-1.0208,-1.0202,-1.0196,-1.0262,-1.0262,-1.0305,-1.0306,-1.0306]},{"header":{"parameterUnit":"m.s-1","parameterCategory":1,"la1":30.2991,"la2":30.254,"lo1":-89.0895,"lo2":-89.0444,"dy":0.0017,"dx":0.0017,"nx":28,"ny":28,"refTime":"2025-06-21T09:00:00:Z","depth":0,"parameterNumber":3,"parameterNumberName":"V-component_of_WINDS"},"data":[0,0,0,0,0,0,0,0,0,0,0,0,0,0,0,0,0,0,0,0,0,0,0,0,0,0,0,0,0,0,0,0,0,0,0,0,0,0,0,0,0,0,0,0,0,0,0,0,0,0,0,0,0,0,0,0,0,0,2.4947,2.4947,0,2.4936,2.4936,2.4936,2.4898,2.4897,2.4896,2.4895,2.4884,2.4885,2.4885,0,0,0,0,0,0,0,0,0,0,0,0,0,2.4937,2.4937,2.4947,2.4947,2.4947,2.4936,2.4936,2.4935,2.4898,2.4897,2.4896,2.4895,2.4884,2.4885,2.4885,0,0,0,0,0,0,0,0,0,0,0,0,0,2.4935,2.4937,2.4947,2.4927,2.4925,2.4936,2.4936,2.4935,2.4898,2.4897,2.4896,2.4894,2.4884,2.4885,2.4886,2.4916,0,0,2.4888,2.4888,0,0,0,0,0,0,0,0,2.4935,2.4935,2.493,2.4928,2.4926,2.4917,2.4928,2.4929,2.4899,2.4908,2.4895,2.4894,2.4896,2.4896,2.4897,2.4915,2.4915,2.4888,2.4888,2.4889,2.4889,0,0,0,0,0,0,0,2.4935,2.4936,2.4943,2.493,2.4927,2.4918,2.4917,2.4928,2.491,2.4907,2.4905,2.4904,2.4895,2.4896,2.4896,2.4914,2.4888,2.4889,2.4889,2.4889,2.4956,2.4957,0,0,0,0,0,0,2.4938,2.4936,2.4943,2.4942,2.4927,2.492,2.4918,2.4921,2.4909,2.4906,2.4905,2.4902,2.4895,2.4895,2.4896,2.4929,2.4889,2.4889,2.489,2.4955,2.4956,2.4958,0,0,0,0,0,0,2.4938,2.4939,2.4943,2.4938,2.4938,2.4921,2.4925,2.4922,2.4922,2.4907,2.4904,2.4909,2.4894,2.4895,2.4911,2.4928,2.489,2.489,2.4953,2.4955,2.4957,2.4997,0,0,0,0,0,0,2.4938,2.4939,2.495,2.4939,2.4939,2.4959,2.4926,2.4922,2.4924,2.492,2.4911,2.4908,2.4893,2.491,2.4911,2.4929,2.4891,2.4952,2.4954,2.4956,2.4994,2.5,2.5005,0,0,0,0,0,2.4938,2.4962,2.4951,2.4952,2.4952,2.496,2.496,2.4942,2.4925,2.4936,2.4927,2.4908,2.4926,2.4912,2.4913,2.4931,2.495,2.4953,2.4956,2.4991,2.4999,2.5005,0,0,0,0,0,0,2.4977,2.496,2.4948,2.497,2.4966,2.4953,2.4967,2.4951,2.4952,2.4949,2.4927,2.4926,2.4945,2.494,2.4924,2.4959,2.4935,2.4939,2.4961,2.4968,2.4974,2.4974,2.4892,0,0,0,0,0,2.4988,2.4995,2.4981,2.5001,2.5,2.4984,2.4987,2.4974,2.4969,2.4968,2.4959,2.4956,2.4961,2.4965,2.4968,2.4994,2.4991,2.5006,2.5012,2.5017,2.502,2.5032,2.5039,2.4968,2.4968,2.4968,0,0,2.5011,2.5003,2.5009,2.5009,2.5005,2.5013,2.4983,2.4993,2.4999,2.4969,2.4983,2.4977,2.4972,2.4993,2.5002,2.4989,2.5039,2.5021,2.5024,2.5025,2.5036,2.5042,2.5048,2.497,2.4969,2.4969,0,0,2.5057,2.5052,2.5068,2.5064,2.5058,2.5047,2.5051,2.5041,2.5035,2.5049,2.5027,2.5034,2.5043,2.504,2.504,2.5085,2.5068,2.5087,2.5116,2.5128,2.5134,2.5139,2.5154,2.5159,2.509,2.509,2.509,0,2.5086,2.5097,2.5078,2.5089,2.509,2.5064,2.508,2.5077,2.5073,2.5074,2.506,2.5071,2.5066,2.5085,2.5096,2.5097,2.51,2.5087,2.5134,2.5139,2.5143,2.5157,2.5163,2.5092,2.5092,2.5092,2.5092,0,2.5133,2.5141,2.5155,2.5151,2.5153,2.5167,2.515,2.5155,2.5142,2.5132,2.5146,2.5139,2.5141,2.5145,2.5132,2.5162,2.5155,2.5138,2.5114,2.5153,2.5166,2.5171,2.5096,2.5095,2.5094,2.5094,0,0,2.5202,2.5188,2.5193,2.5191,2.5182,2.5188,2.5201,2.5202,2.5206,2.5204,2.5214,2.5222,2.5206,2.5206,2.5193,2.5204,2.5239,2.5186,2.5186,2.5195,2.5271,2.5282,2.5289,2.5228,2.5229,2.523,2.5271,0,2.5245,2.5265,2.5248,2.5271,2.5278,2.5254,2.5264,2.526,2.5252,2.5257,2.5248,2.5253,2.5233,2.5233,2.5242,2.5233,2.5254,2.523,2.5236,2.5237,2.5237,2.5296,2.5308,2.5347,2.5276,2.5277,2.5277,0,2.5297,2.5297,2.532,2.531,2.5312,2.5322,2.5322,2.5327,2.5322,2.5315,2.5315,2.5299,2.531,2.5287,2.5303,2.5287,2.5289,2.5284,2.5285,2.5284,2.5259,2.5295,2.5359,2.5365,2.5285,2.5285,2.5284,0,2.5344,2.535,2.5364,2.5363,2.5352,2.5359,2.5355,2.5349,2.535,2.535,2.5351,2.5353,2.5353,2.5355,2.534,2.5324,2.5357,2.5333,2.5351,2.5351,2.5358,2.5358,2.5422,2.5361,2.5361,2.5361,2.5361,0,2.5392,2.5407,2.5385,2.5394,2.541,2.5391,2.5408,2.5401,2.5396,2.5403,2.5383,2.539,2.537,2.5375,2.5364,2.5378,2.5379,2.5373,2.537,2.5374,2.5375,2.5374,2.5371,2.5363,2.5362,2.5362,2.5362,0,2.5447,2.5433,2.5447,2.5435,2.5432,2.5444,2.5434,2.5442,2.5432,2.5442,2.5443,2.5428,2.5433,2.5418,2.5421,2.5413,2.5433,2.5426,2.5435,2.5432,2.5451,2.5449,2.5516,2.5524,2.546,2.546,2.5461,0,2.5478,2.5489,2.5478,2.5481,2.5478,2.5483,2.5485,2.5467,2.5469,2.5465,2.5473,2.5476,2.5478,2.5487,2.5476,2.5478,2.547,2.5494,2.5471,2.5475,2.547,2.5469,2.5469,2.5498,2.5499,2.55,2.55,0,2.5535,2.5527,2.553,2.553,2.5532,2.5532,2.553,2.5534,2.5515,2.5519,2.5523,2.5525,2.5527,2.5531,2.553,2.5526,2.551,2.5508,2.5512,2.5516,2.5521,2.5518,2.5447,2.5506,2.5506,2.5505,2.5505,2.5505,2.5578,2.5586,2.558,2.5583,2.558,2.5579,2.5585,2.5576,2.558,2.558,2.557,2.5577,2.5571,2.5569,2.5567,2.5572,2.5561,2.5567,2.5569,2.557,2.5573,2.5521,2.5572,2.5572,2.5571,2.5571,2.5571,0,2.5633,2.5627,2.5631,2.5629,2.5631,2.5616,2.5613,2.5617,2.5623,2.5619,2.5621,2.5626,2.563,2.5619,2.5621,2.5627,2.562,2.5628,2.5627,2.5626,2.5583,2.5579,2.5634,2.5634,2.5634,2.5634,2.5634,2.5634,2.5661,2.5674,2.5666,2.5677,2.5672,2.5678,2.5677,2.5676,2.5673,2.568,2.5682,2.5675,2.5669,2.567,2.5672,2.5669,2.567,2.5681,2.5676,2.5635,2.5629,2.5623,2.5619,2.5682,2.5682,2.5718,2.5718,2.5719]}]]